Date,TemperatureHighF,TemperatureAvgF,TemperatureLowF,DewpointHighF,DewpointAvgF,DewpointLowF,HumidityHigh,HumidityAvg,HumidityLow,PressureMaxIn,PressureMinIn,WindSpeedMaxMPH,WindSpeedAvgMPH,GustSpeedMaxMPH,PrecipitationSumIn
2013-6-1,84.9,77.4,73.9,77.0,74.6,72.0,96,91,75,30.01,29.95,10,1,0,1.09
2013-6-2,90.6,79.5,72.3,78.0,74.2,72.0,98,85,62,29.99,29.91,8,1,0,0.03
2013-6-3,88.0,79.2,72.9,77.0,74.5,72.0,97,86,65,30.02,29.90,6,1,0,1.30
2013-6-4,86.2,78.8,73.7,77.0,74.8,73.0,97,88,65,30.04,29.94,6,1,0,0.10
2013-6-5,84.2,80.8,78.6,78.0,76.5,75.0,91,87,78,30.01,29.89,6,2,0,0.04
2013-6-6,88.7,80.0,74.0,79.0,75.9,72.0,96,87,72,29.90,29.77,19,4,0,1.28
2013-6-7,92.3,78.3,73.8,79.0,74.4,73.0,97,88,61,29.98,29.83,6,1,0,0.91
2013-6-8,88.8,78.3,74.5,80.0,74.0,-99.9,97,89,74,30.09,29.95,9,-10,0,0.19
2013-6-9,87.9,82.1,77.6,77.0,75.5,74.0,94,81,66,30.10,30.02,14,3,0,0.00
2013-6-10,89.5,83.5,79.4,78.0,76.5,75.0,88,80,67,30.08,30.00,11,2,0,0.00
2013-6-11,89.6,81.9,77.0,80.0,77.1,75.0,95,86,64,30.09,30.00,6,1,0,0.94
2013-6-12,89.8,79.8,74.8,79.0,76.3,72.0,97,89,65,30.07,30.00,4,0,0,0.36
2013-6-13,91.7,79.9,74.1,80.0,74.9,72.0,98,85,58,30.04,29.93,5,0,0,0.17
2013-6-14,95.1,82.0,74.1,77.0,73.6,71.0,96,77,49,29.96,29.87,8,1,0,0.00
2013-6-15,91.5,82.7,75.0,77.0,74.9,72.0,96,78,55,30.04,29.92,9,1,0,0.00
2013-6-16,91.9,83.5,75.4,78.0,75.9,74.0,96,79,57,30.08,30.01,7,2,0,0.00
2013-6-17,92.7,84.7,77.2,78.0,76.2,75.0,94,76,58,30.07,30.00,8,2,0,0.00
2013-6-18,92.3,84.9,77.2,77.0,76.1,74.0,95,76,58,30.06,29.97,10,2,0,0.00
2013-6-19,93.1,84.4,78.1,79.0,76.2,74.0,94,77,56,30.04,29.97,9,2,0,0.00
2013-6-20,94.2,82.5,75.3,77.0,73.8,69.0,89,76,54,30.08,30.01,8,2,0,0.00
2013-6-21,92.1,83.6,76.5,77.0,74.3,72.0,93,75,54,30.10,30.02,11,2,0,0.00
2013-6-22,91.3,84.1,77.0,76.0,74.3,72.0,92,73,57,30.09,30.03,9,2,0,0.00
2013-6-23,89.4,83.6,77.9,77.0,74.5,72.0,86,75,60,30.12,30.04,13,3,0,0.00
2013-6-24,89.9,83.1,75.3,76.0,74.5,72.0,94,76,62,30.15,30.07,15,3,0,0.02
2013-6-25,90.5,83.4,77.1,78.0,75.6,73.0,90,78,64,30.12,30.03,12,3,0,0.00
2013-6-26,90.9,83.4,77.2,78.0,75.8,74.0,93,78,58,30.07,30.00,9,2,0,0.09
2013-6-27,88.8,82.2,77.3,78.0,75.7,73.0,92,81,67,30.05,29.95,9,1,0,0.10
2013-6-28,92.8,81.9,73.3,79.0,74.9,70.0,96,81,58,29.99,29.85,10,2,0,0.18
2013-6-29,94.7,80.0,74.5,78.0,71.9,-99.9,96,84,51,29.91,29.81,8,-10,0,0.04
2013-6-30,90.6,80.0,74.4,78.0,75.4,72.0,95,86,63,29.94,29.84,10,1,0,1.73